Weather History for Mattoon, IL

Change the Weather History Date:

Tuesday, December 25, 2012

  Actual Average Record
Temperature  
Mean Temperature 30 °F 29 °F  
Max Temperature 34 °F 36 °F 54 °F (1971)
Min Temperature 25 °F 22 °F -14 °F (1983)
Degree Days  
Heating Degree Days 35 36  
Month to date heating degree days 570 825  
Since 1 July heating degree days 1735 1884  
Cooling Degree Days 0 0  
Month to date cooling degree days 0 0  
Year to date cooling degree days 1382 1057  
Moisture  
Dew Point 25 °F    
Average Humidity 81    
Maximum Humidity 92    
Minimum Humidity 69    
Precipitation  
Precipitation 0.00 in 0.11 in 0.76 in (1951)
Month to date precipitation 3.52 2.16  
Year to date precipitation 34.16 37.44  
Sea Level Pressure  
Sea Level Pressure 30.15 in    
Wind  
Wind Speed 14 mph (NNE)    
Max Wind Speed 29 mph    
Max Gust Speed 38 mph    
Visibility 9 miles    
Events      
T = Trace of Precipitation, MM = Missing Value Source: NWS Daily Summary

Daily Weather History Graph

Daily Weather History Graph

Search for Another Location

Airport:

Trip Planner

Search our weather history database for the weather conditions in past years. The results will help you decide how hot, cold, wet, or windy it might be!

Date:

Astronomy

Dec. 25, 2012 Rise Set
Actual Time 7:11 AM CST 4:35 PM CST
Civil Twilight 6:41 AM CST 5:05 PM CST
Nautical Twilight 6:07 AM CST 5:39 PM CST
Astronomical Twilight 5:34 AM CST 6:12 PM CST
Moon 2:43 PM CST (12/25) 4:44 AM CST (12/25)
Length of Visible Light 10h 24m
Length of Day
9h 23m
Waxing Gibbous, 94% of the Moon is Illuminated
Dec 25
Waxing Gibbous
Dec 28
Full
Jan 4
Last Quarter
Jan 11
New
Jan 18
First Quarter

Hourly Weather History & Observations

Time (CST) Temp. Windchill Dew Point Humidity Pressure Visibility Wind Dir Wind Speed Gust Speed Precip Events Conditions
12:53 AM 25.0 °F 14.2 °F 21.9 °F 88% 30.12 in 5.0 mi NW 11.5 mph - N/A   Overcast
1:21 AM 24.8 °F 14.0 °F 21.2 °F 86% 30.09 in 5.0 mi NW 11.5 mph - N/A   Overcast
1:28 AM 24.8 °F 14.6 °F 21.2 °F 86% 30.10 in 5.0 mi NW 10.4 mph - N/A   Overcast
1:53 AM 26.1 °F 17.6 °F 23.0 °F 88% 30.13 in 5.0 mi NW 8.1 mph - N/A   Overcast
2:53 AM 26.1 °F 17.6 °F 24.1 °F 92% 30.16 in 5.0 mi NW 8.1 mph - N/A   Overcast
3:53 AM 27.0 °F 18.7 °F 24.1 °F 89% 30.16 in 5.0 mi NW 8.1 mph - N/A   Overcast
4:53 AM 28.0 °F 20.8 °F 25.0 °F 88% 30.18 in 5.0 mi NNW 6.9 mph - N/A   Overcast
5:30 AM 28.4 °F 20.4 °F 24.8 °F 86% 30.16 in 6.0 mi NNW 8.1 mph - N/A   Overcast
5:53 AM 28.0 °F 20.0 °F 26.1 °F 92% 30.19 in 6.0 mi NNW 8.1 mph - N/A   Overcast
6:53 AM 30.0 °F 21.1 °F 26.1 °F 85% 30.19 in 10.0 mi NNE 10.4 mph - N/A   Overcast
7:53 AM 30.0 °F 19.1 °F 26.1 °F 85% 30.15 in 10.0 mi NNE 15.0 mph - N/A   Overcast
8:53 AM 30.9 °F 21.2 °F 27.0 °F 85% 30.21 in 10.0 mi NE 12.7 mph - N/A   Clear
9:53 AM 32.0 °F 21.2 °F 27.0 °F 82% 30.24 in 10.0 mi NNE 16.1 mph - N/A   Clear
10:18 AM 33.8 °F 24.8 °F 26.6 °F 75% 30.23 in 10.0 mi NNE 12.7 mph - N/A   Mostly Cloudy
10:42 AM 33.8 °F 24.3 °F 26.6 °F 75% 30.23 in 10.0 mi NE 13.8 mph - N/A   Scattered Clouds
10:53 AM 33.1 °F 24.4 °F 26.1 °F 75% 30.25 in 10.0 mi NE 11.5 mph - N/A   Partly Cloudy
11:53 AM 34.0 °F 24.2 °F 25.0 °F 70% 30.21 in 10.0 mi NE 15.0 mph - N/A   Partly Cloudy
12:28 PM 33.8 °F 23.5 °F 24.8 °F 70% 30.15 in 10.0 mi NE 16.1 mph - N/A   Mostly Cloudy
12:39 PM 33.8 °F 22.5 °F 24.8 °F 70% 30.14 in 10.0 mi NE 19.6 mph - N/A   Scattered Clouds
12:49 PM 33.8 °F 23.9 °F 24.8 °F 70% 30.13 in 10.0 mi NE 15.0 mph - N/A   Mostly Cloudy
12:53 PM 34.0 °F 23.0 °F 25.0 °F 70% 30.15 in 10.0 mi NE 18.4 mph 24.2 mph N/A   Mostly Cloudy
1:53 PM 34.0 °F 23.8 °F 25.0 °F 70% 30.17 in 10.0 mi NE 16.1 mph 21.9 mph N/A   Overcast
2:53 PM 33.1 °F 22.6 °F 26.1 °F 75% 30.15 in 10.0 mi ENE 16.1 mph - N/A   Overcast
3:53 PM 33.1 °F 22.2 °F 25.0 °F 72% 30.15 in 10.0 mi ENE 17.3 mph - N/A   Overcast
4:53 PM 33.1 °F 23.4 °F 25.0 °F 72% 30.16 in 10.0 mi ENE 13.8 mph 20.7 mph N/A   Overcast
5:53 PM 32.0 °F 21.2 °F 24.1 °F 73% 30.17 in 10.0 mi NE 16.1 mph - N/A   Overcast
6:53 PM 32.0 °F 22.1 °F 25.0 °F 75% 30.15 in 10.0 mi NE 13.8 mph - N/A   Overcast
7:16 PM 32.0 °F 20.5 °F 24.8 °F 75% 30.11 in 10.0 mi NE 18.4 mph 27.6 mph N/A   Overcast
7:40 PM 32.0 °F 20.8 °F 24.8 °F 75% 30.09 in 10.0 mi NE 17.3 mph 31.1 mph N/A   Overcast
7:53 PM 32.0 °F 19.5 °F 25.0 °F 75% 30.11 in 10.0 mi NE 21.9 mph 27.6 mph N/A   Overcast
8:53 PM 32.0 °F 20.1 °F 25.0 °F 75% 30.08 in 10.0 mi NE 19.6 mph 32.2 mph N/A   Overcast
9:53 PM 32.0 °F 21.2 °F 25.0 °F 75% 30.08 in 10.0 mi ENE 16.1 mph 27.6 mph N/A   Overcast
10:53 PM 32.0 °F 20.8 °F 25.0 °F 75% 30.05 in 10.0 mi NE 17.3 mph 24.2 mph N/A   Overcast
11:53 PM 32.0 °F 19.5 °F 26.1 °F 79% 30.00 in 10.0 mi NE 21.9 mph 29.9 mph N/A   Overcast